Simultaneous Nadir Overpasses (SNOs) Predictions

Prediction of SNOs between NOAA-19 and TERRA Satellite Orbit:

Table of predicted SNOs for the next 14.0 days since TLE Epoch: 5/21/2021
Index Date (NOAA-19) Time (NOAA-19) Lat,Lon (NOAA-19) SZA (NOAA-19 ) Date (TERRA) Time (TERRA) Lat,Lon (TERRA) SZA (TERRA ) Distance(km) Time Diff (sec)
1 05/21/2021 23:14:46 -80.22, 44.55 118.41 05/21/2021 23:14:21 -80.24, 44.68 118.39 3.38 25
2 05/24/2021 04:48:02 80.24, 141.10 61.16 05/24/2021 04:48:02 80.24, 141.27 61.19 3.26 0
3 05/26/2021 10:21:07 -80.24,-122.13 119.23 05/26/2021 10:21:44 -80.24,-122.21 119.23 1.55 37
4 05/26/2021 11:12:12 80.23, 45.28 60.77 05/26/2021 11:11:10 80.24, 45.43 60.77 3.17 62
5 05/28/2021 15:54:23 80.25, -25.53 60.40 05/28/2021 15:55:24 80.27, -25.40 60.45 3.05 61
6 05/28/2021 16:45:17 -80.24, 141.98 119.60 05/28/2021 16:44:52 -80.24, 141.96 119.61 0.39 25
7 05/30/2021 22:18:33 80.25,-121.43 60.07 05/30/2021 22:18:32 80.26,-121.27 60.09 3.13 1
8 06/02/2021 03:51:38 -80.26, -24.82 120.25 06/02/2021 03:52:14 -80.25, -24.75 120.23 1.41 36
9 06/02/2021 04:42:42 80.22, 142.96 59.78 06/02/2021 04:41:40 80.25, 142.83 59.76 3.35 62
10 06/04/2021 09:24:53 80.25, 72.04 59.49 06/04/2021 09:25:54 80.27, 71.95 59.52 2.17 61



Historial Predications of SNOs between NOAA-19 and TERRA
